KG6SIB Weather Reports


time (UTC)temp
F
wind
direction
speed
knots
gust
knots
rain 1hr
in
rain 24hr
in
rain mn
in
humidity
%
barometer
mb
20260507203147 79 207 0.9 7.0 0.00 0.00 0.00 46 1017.3
20260507202647 79 248 2.6 7.0 0.00 0.00 0.00 47 1017.4
20260507202147 79 274 0.0 5.2 0.00 0.00 0.00 45 1017.4
20260507201147 79 348 1.7 10.4 0.00 0.00 0.00 45 1017.6
20260507200647 79 244 3.5 10.4 0.00 0.00 0.00 47 1017.5
20260507200147 79 212 4.3 9.6 0.00 0.00 0.00 47 1017.4
20260507195147 79 203 0.0 8.7 0.00 0.00 0.00 45 1017.9
20260507194647 79 213 1.7 8.7 0.00 0.00 0.00 46 1018.0
20260507194146 79 242 4.3 8.7 0.00 0.00 0.00 46 1018.0
20260507193646 78 273 0.9 9.6 0.00 0.00 0.00 45 1017.7
20260507192647 78 192 2.6 9.6 0.00 0.00 0.00 45 1017.8
20260507192147 78 218 2.6 8.7 0.00 0.00 0.00 44 1017.9
20260507191646 78 227 2.6 8.7 0.00 0.00 0.00 46 1017.8
20260507191146 78 245 3.5 8.7 0.00 0.00 0.00 44 1017.8
20260507190646 78 211 3.5 8.7 0.00 0.00 0.00 45 1017.9
20260507190147 79 212 5.2 7.8 0.00 0.00 0.00 46 1018.4
20260507184646 78 207 7.0 9.6 0.00 0.00 0.00 47 1018.3
20260507184146 78 231 2.6 8.7 0.00 0.00 0.00 47 1018.4
20260507183646 78 267 3.5 8.7 0.00 0.00 0.00 44 1018.3
20260507183146 78 174 0.9 7.8 0.00 0.00 0.00 42 1018.4
20260507182646 78 236 2.6 8.7 0.00 0.00 0.00 39 1018.2
20260507182146 79 55 0.9 8.7 0.00 0.00 0.00 41 1018.3
20260507181646 79 150 2.6 7.8 0.00 0.00 0.00 45 1018.4
20260507180645 78 234 2.6 10.4 0.00 0.00 0.00 45 1018.3
20260507180145 79 233 8.7 10.4 0.00 0.00 0.00 44 1018.4
20260507175645 78 238 5.2 8.7 0.00 0.00 0.00 46 1018.5
20260507175146 78 190 2.6 9.6 0.00 0.00 0.00 47 1018.6
20260507174646 77 213 1.7 9.6 0.00 0.00 0.00 47 1018.6
20260507173145 77 244 7.0 8.7 0.00 0.00 0.00 46 1018.6
20260507172146 77 220 6.1 7.8 0.00 0.00 0.00 45 1018.7
20260507171645 76 232 1.7 7.0 0.00 0.00 0.00 47 1018.4
20260507171145 76 186 1.7 4.3 0.00 0.00 0.00 44 1018.4
20260507170645 75 190 0.9 4.3 0.00 0.00 0.00 47 1018.6
20260507170145 75 234 1.7 6.1 0.00 0.00 0.00 46 1018.5
20260507165645 75 202 0.9 6.1 0.00 0.00 0.00 45 1018.5
20260507165145 75 229 0.0 5.2 0.00 0.00 0.00 48 1018.7
20260507164645 75 229 1.7 5.2 0.00 0.00 0.00 47 1018.8
20260507164145 74 182 1.7 7.0 0.00 0.00 0.00 46 1018.7
20260507163145 74 200 1.7 7.0 0.00 0.00 0.00 46 1018.8
20260507162644 74 227 1.7 7.0 0.00 0.00 0.00 46 1018.7
20260507162145 74 231 5.2 5.2 0.00 0.00 0.00 46 1018.7
20260507161644 74 194 0.0 5.2 0.00 0.00 0.00 46 1018.7
20260507161144 74 244 0.0 5.2 0.00 0.00 0.00 43 1018.7
20260507160645 73 227 0.0 5.2 0.00 0.00 0.00 47 1018.5
20260507160145 73 248 3.5 4.3 0.00 0.00 0.00 46 1018.6
20260507155644 72 215 0.9 3.5 0.00 0.00 0.00 46 1018.7
20260507155144 72 151 0.9 1.7 0.00 0.00 0.00 47 1018.7
20260507154644 71 137 0.0 0.9 0.00 0.00 0.00 49 1018.6
20260507154144 71 137 0.0 2.6 0.00 0.00 0.00 50 1018.7
20260507153644 70 136 0.0 2.6 0.00 0.00 0.00 51 1018.7
20260507152644 68 129 0.0 1.7 0.00 0.00 0.00 52 1018.3
20260507152144 67 71 0.0 0.0 0.00 0.00 0.00 51 1018.1
20260507151644 66 71 0.0 0.0 0.00 0.00 0.00 62 1018.2
20260507151144 66 71 0.0 0.0 0.00 0.00 0.00 62 1018.2
20260507150644 65 71 0.0 0.0 0.00 0.00 0.00 72 1018.0
20260507145144 61 71 0.0 2.6 0.00 0.00 0.00 69 1018.1
20260507144644 60 74 0.9 4.3 0.00 0.00 0.00 68 1018.0
20260507144143 59 57 0.9 4.3 0.00 0.00 0.00 71 1017.9
20260507143644 58 76 2.6 4.3 0.00 0.00 0.00 72 1017.8
20260507143143 57 71 2.6 4.3 0.00 0.00 0.00 75 1017.6
20260507142643 56 65 2.6 4.3 0.00 0.00 0.00 76 1017.6
20260507142143 54 46 1.7 5.2 0.00 0.00 0.00 78 1017.3
20260507141643 53 67 2.6 5.2 0.00 0.00 0.00 77 1017.1
20260507141143 52 61 4.3 7.0 0.00 0.00 0.00 79 1017.1
20260507140143 50 34 4.3 5.2 0.00 0.00 0.00 79 1016.8
20260507135643 49 61 5.2 7.0 0.00 0.00 0.00 80 1017.1
20260507135143 49 62 3.5 7.0 0.00 0.00 0.00 81 1017.1
20260507134643 48 48 3.5 6.1 0.00 0.00 0.00 82 1017.2
20260507134142 47 53 3.5 6.1 0.00 0.00 0.00 83 1016.9
20260507133643 46 44 5.2 6.1 0.00 0.00 0.00 83 1016.9
20260507133143 46 65 4.3 5.2 0.00 0.00 0.00 82 1016.9
20260507132643 46 50 5.2 6.1 0.00 0.00 0.00 82 1016.9
20260507132143 46 32 3.5 7.8 0.00 0.00 0.00 82 1016.8
20260507131643 46 56 4.3 7.8 0.00 0.00 0.00 82 1016.9
20260507131143 45 40 4.3 5.2 0.00 0.00 0.00 82 1016.5
20260507130643 45 65 3.5 6.1 0.00 0.00 0.00 82 1016.3
20260507130143 45 65 3.5 6.1 0.00 0.00 0.00 82 1016.3
20260507125643 45 57 4.3 6.1 0.00 0.00 0.00 83 1016.8
20260507125143 45 46 5.2 7.0 0.00 0.00 0.00 83 1016.8
20260507124642 45 43 3.5 7.0 0.00 0.00 0.00 83 1016.8
20260507124142 45 56 3.5 5.2 0.00 0.00 0.00 83 1016.8
20260507123642 45 57 3.5 4.3 0.00 0.00 0.00 83 1016.8
20260507123142 45 65 3.5 6.1 0.00 0.00 0.00 83 1016.8
20260507122642 46 65 4.3 6.1 0.00 0.00 0.00 83 1017.0
20260507122142 46 60 3.5 6.1 0.00 0.00 0.00 83 1017.0
20260507121142 45 38 3.5 5.2 0.00 0.00 0.00 83 1016.8
20260507120642 45 57 2.6 4.3 0.00 0.00 0.00 84 1016.8
20260507120142 45 63 3.5 6.1 0.00 0.00 0.00 84 1016.7
20260507115141 45 57 3.5 7.0 0.00 0.00 0.00 84 1017.2
20260507114642 45 62 4.3 7.0 0.00 0.00 0.00 84 1017.1
20260507114141 45 48 5.2 7.0 0.00 0.00 0.00 84 1017.2
20260507113642 45 47 4.3 5.2 0.00 0.00 0.00 84 1017.2
20260507112641 45 46 4.3 7.0 0.00 0.00 0.00 85 1017.3
20260507111641 45 47 2.6 7.0 0.00 0.00 0.00 86 1017.3
20260507111141 45 75 4.3 7.0 0.00 0.00 0.00 86 1017.3
20260507110641 45 71 1.7 7.0 0.00 0.00 0.00 87 1017.5
20260507105641 44 55 4.3 6.1 0.00 0.00 0.00 87 1017.7
20260507105141 44 30 5.2 6.1 0.00 0.00 0.00 87 1017.7
20260507104641 44 43 4.3 7.0 0.00 0.00 0.00 87 1017.7
20260507104141 44 69 3.5 7.8 0.00 0.00 0.00 88 1017.7
20260507103641 44 41 3.5 7.8 0.00 0.00 0.00 88 1017.7
20260507103141 44 41 5.2 7.0 0.00 0.00 0.00 88 1017.8
20260507102141 44 57 3.5 6.1 0.00 0.00 0.00 88 1017.9
20260507101641 44 68 3.5 5.2 0.00 0.00 0.00 89 1017.8
20260507101140 44 74 3.5 5.2 0.00 0.00 0.00 89 1017.8
20260507100641 44 71 3.5 6.1 0.00 0.00 0.00 89 1017.7
20260507100141 44 54 3.5 6.1 0.00 0.00 0.00 90 1017.8
20260507095640 44 63 4.3 7.8 0.00 0.00 0.00 90 1017.9
20260507095141 44 49 3.5 7.8 0.00 0.00 0.00 90 1017.9
20260507094641 44 51 3.5 7.0 0.00 0.00 0.00 90 1018.0
20260507094140 44 40 4.3 5.2 0.00 0.00 0.00 90 1018.0
20260507093640 44 30 2.6 5.2 0.00 0.00 0.00 90 1018.1
20260507093141 44 34 4.3 6.1 0.00 0.00 0.00 90 1018.2
20260507092641 44 66 3.5 6.1 0.00 0.00 0.00 89 1018.2
20260507092140 44 60 3.5 6.1 0.00 0.00 0.00 89 1018.2
20260507090640 44 42 3.5 5.2 0.00 0.00 0.00 90 1018.5
20260507090140 44 48 3.5 5.2 0.00 0.00 0.00 90 1018.6
20260507085640 44 63 3.5 5.2 0.00 0.00 0.00 90 1018.7
20260507085140 44 47 2.6 6.1 0.00 0.00 0.00 90 1018.6
20260507084640 44 32 3.5 6.1 0.00 0.00 0.00 90 1018.7
20260507084140 44 42 5.2 6.1 0.00 0.00 0.00 90 1018.7
20260507083640 44 28 4.3 6.1 0.00 0.00 0.00 90 1018.7
20260507083140 45 54 3.5 6.1 0.00 0.00 0.00 90 1018.8
20260507082639 45 67 3.5 6.1 0.00 0.00 0.00 90 1018.8
20260507081640 45 53 2.6 5.2 0.00 0.00 0.00 90 1018.9
20260507080639 45 58 3.5 5.2 0.00 0.00 0.00 90 1018.9
20260507080139 45 43 3.5 5.2 0.00 0.00 0.00 90 1018.9
20260507075639 45 21 4.3 5.2 0.00 0.00 0.00 90 1018.6
20260507075139 45 25 3.5 5.2 0.00 0.00 0.00 90 1018.6
20260507074639 45 40 4.3 5.2 0.00 0.00 0.00 90 1018.5
20260507074139 45 49 4.3 6.1 0.00 0.00 0.00 90 1018.6
20260507073639 45 61 3.5 6.1 0.00 0.00 0.00 90 1018.6
20260507073139 45 42 3.5 6.1 0.00 0.00 0.00 90 1018.6
20260507072639 46 78 4.3 5.2 0.00 0.00 0.00 90 1018.8
20260507071139 46 62 2.6 6.1 0.00 0.00 0.00 90 1019.0
20260507070138 46 64 2.6 5.2 0.00 0.00 0.00 89 1019.0
20260507065638 46 69 2.6 4.3 0.00 0.00 0.00 89 1018.6
20260507065139 46 49 2.6 4.3 0.00 0.00 0.00 89 1018.6
20260507064138 46 33 0.0 5.2 0.00 0.00 0.00 89 1018.6
20260507063638 47 44 3.5 5.2 0.00 0.00 0.00 89 1018.9
20260507063138 47 16 1.7 6.1 0.00 0.00 0.00 89 1018.8
20260507062638 47 59 4.3 6.1 0.00 0.00 0.00 89 1018.9
20260507062138 47 36 1.7 7.0 0.00 0.00 0.00 89 1019.0
20260507061638 47 31 5.2 7.0 0.00 0.00 0.00 89 1019.0
20260507061138 47 13 2.6 7.0 0.00 0.00 0.00 89 1018.9
20260507060638 47 39 3.5 5.2 0.00 0.00 0.00 89 1019.0
20260507060138 47 52 2.6 6.1 0.00 0.00 0.00 90 1018.9
20260507055638 47 32 4.3 6.1 0.00 0.00 0.00 90 1018.4
20260507055138 47 36 4.3 4.3 0.00 0.00 0.00 90 1018.4
20260507054638 47 45 2.6 4.3 0.00 0.00 0.00 89 1018.4
20260507054137 47 31 2.6 5.2 0.00 0.00 0.00 90 1018.3
20260507053638 48 44 2.6 5.2 0.00 0.00 0.00 90 1018.7
20260507053137 48 38 1.7 4.3 0.00 0.00 0.00 90 1018.6
20260507052638 48 63 4.3 4.3 0.00 0.00 0.00 90 1018.6
20260507051638 48 24 3.5 4.3 0.00 0.00 0.00 90 1018.6
20260507051137 48 40 2.6 6.1 0.00 0.00 0.00 90 1018.7
20260507050637 48 41 4.3 6.1 0.00 0.00 0.00 90 1018.7
20260507050137 48 63 1.7 5.2 0.00 0.00 0.00 90 1018.7
20260507045637 48 42 1.7 5.2 0.00 0.00 0.00 89 1018.2
20260507045137 48 68 2.6 4.3 0.00 0.00 0.00 89 1018.2
20260507044637 48 53 3.5 6.1 0.00 0.00 0.00 89 1018.4
20260507044137 48 51 2.6 6.1 0.00 0.00 0.00 89 1018.3
20260507043637 49 52 1.7 6.1 0.00 0.00 0.00 89 1018.6
20260507043137 49 76 2.6 5.2 0.00 0.00 0.00 89 1018.6
20260507042637 49 35 4.3 5.2 0.00 0.00 0.00 88 1018.7
20260507041637 49 44 1.7 4.3 0.00 0.00 0.00 88 1018.6
20260507040137 50 37 0.0 3.5 0.00 0.00 0.00 87 1018.5
20260507035637 50 45 3.5 4.3 0.00 0.00 0.00 87 1017.9
20260507035136 50 47 1.7 4.3 0.00 0.00 0.00 87 1017.9
20260507034637 51 53 2.6 3.5 0.00 0.00 0.00 86 1017.8
20260507034137 51 55 3.5 3.5 0.00 0.00 0.00 86 1017.7
20260507033136 52 59 0.9 4.3 0.00 0.00 0.00 85 1018.0
20260507032637 52 66 1.7 3.5 0.00 0.00 0.00 85 1018.0
20260507031636 53 79 1.7 4.3 0.00 0.00 0.00 83 1018.0
20260507031136 53 5 1.7 3.5 0.00 0.00 0.00 83 1018.0
20260507030636 54 347 1.7 2.6 0.00 0.00 0.00 82 1018.1
20260507025136 55 244 0.0 0.9 0.00 0.00 0.00 81 1017.1
20260507024636 56 244 0.0 0.9 0.00 0.00 0.00 80 1017.0
20260507023636 57 244 0.0 3.5 0.00 0.00 0.00 79 1017.3
20260507023136 57 244 0.0 3.5 0.00 0.00 0.00 79 1017.2
20260507022136 58 245 1.7 3.5 0.00 0.00 0.00 78 1017.1
20260507021636 59 245 1.7 4.3 0.00 0.00 0.00 77 1017.4
20260507021136 59 243 0.0 4.3 0.00 0.00 0.00 77 1017.4
20260507020636 59 242 3.5 6.1 0.00 0.00 0.00 76 1017.3
20260507020135 60 231 3.5 6.1 0.00 0.00 0.00 75 1017.4
20260507015635 60 234 0.9 4.3 0.00 0.00 0.00 75 1016.6
20260507015135 60 234 0.0 4.3 0.00 0.00 0.00 74 1016.6
20260507014635 61 225 0.0 5.2 0.00 0.00 0.00 74 1016.8
20260507014136 61 232 4.3 5.2 0.00 0.00 0.00 73 1016.8
20260507013635 61 241 0.0 5.2 0.00 0.00 0.00 73 1016.7
20260507013135 62 240 1.7 6.1 0.00 0.00 0.00 71 1016.6
20260507012635 62 248 1.7 6.1 0.00 0.00 0.00 71 1016.7
20260507011635 63 244 0.9 6.1 0.00 0.00 0.00 70 1017.1
20260507011135 63 217 0.0 6.1 0.00 0.00 0.00 70 1017.1
20260507010635 63 232 0.9 9.6 0.00 0.00 0.00 69 1017.0
20260507010135 64 214 5.2 9.6 0.00 0.00 0.00 67 1017.0
20260507005635 64 234 2.6 7.8 0.00 0.00 0.00 66 1016.5
20260507005135 65 223 4.3 7.8 0.00 0.00 0.00 66 1016.5
20260507004635 65 254 0.0 7.0 0.00 0.00 0.00 65 1016.5
20260507004135 65 235 0.0 7.0 0.00 0.00 0.00 64 1016.6
20260507003635 66 241 0.9 7.8 0.00 0.00 0.00 65 1016.8
20260507003135 66 222 3.5 8.7 0.00 0.00 0.00 63 1016.7
20260507002634 66 257 2.6 8.7 0.00 0.00 0.00 63 1016.6
20260507002135 66 225 1.7 7.8 0.00 0.00 0.00 62 1016.6
20260507001635 67 230 1.7 9.6 0.00 0.00 0.00 61 1016.6
20260507001134 67 211 1.7 9.6 0.00 0.00 0.00 63 1016.7
20260507000635 67 195 2.6 7.8 0.00 0.00 0.00 61 1016.6
20260507000134 67 257 1.7 11.3 0.00 0.00 0.00 61 1016.5
20260506235634 68 161 3.5 11.3 0.00 0.00 0.00 59 1016.8
20260506235134 69 237 3.5 9.6 0.00 0.00 0.00 59 1016.9
20260506234634 69 238 5.2 10.4 0.00 0.00 0.00 59 1016.9
20260506234134 69 218 2.6 10.4 0.00 0.00 0.00 59 1016.9
20260506233634 69 202 0.9 8.7 0.00 0.00 0.00 60 1017.0
20260506233134 69 221 4.3 8.7 0.00 0.00 0.00 59 1016.9
20260506232634 69 244 4.3 7.8 0.00 0.00 0.00 59 1016.9
20260506232134 69 227 5.2 8.7 0.00 0.00 0.00 59 1016.9
20260506231634 69 242 0.9 8.7 0.00 0.00 0.00 57 1016.9
20260506231134 70 227 4.3 10.4 0.00 0.00 0.00 56 1017.0
20260506230633 70 239 0.0 10.4 0.00 0.00 0.00 58 1017.1
20260506230133 70 221 2.6 10.4 0.00 0.00 0.00 56 1017.0
20260506225634 71 202 2.6 10.4 0.00 0.00 0.00 58 1017.4
20260506225133 70 254 0.9 8.7 0.00 0.00 0.00 55 1017.0
20260506224634 70 227 0.0 8.7 0.00 0.00 0.00 56 1017.1
20260506224134 71 78 0.9 10.4 0.00 0.00 0.00 53 1017.4
20260506223634 71 220 1.7 12.2 0.00 0.00 0.00 54 1017.5
20260506223134 71 254 4.3 12.2 0.00 0.00 0.00 54 1017.5
20260506222633 71 250 3.5 9.6 0.00 0.00 0.00 53 1017.6
20260506222133 71 329 1.7 11.3 0.00 0.00 0.00 52 1017.8
20260506221633 71 219 6.1 11.3 0.00 0.00 0.00 52 1017.7
20260506221133 71 253 11.3 11.3 0.00 0.00 0.00 52 1017.8
20260506220633 71 196 3.5 9.6 0.00 0.00 0.00 53 1017.8
20260506220133 70 328 2.6 9.6 0.00 0.00 0.00 49 1017.6
20260506215633 70 270 0.9 8.7 0.00 0.00 0.00 51 1017.9
20260506215133 70 321 0.0 11.3 0.00 0.00 0.00 51 1017.9
20260506214633 70 192 0.9 11.3 0.00 0.00 0.00 49 1017.8
20260506214132 71 198 3.5 7.8 0.00 0.00 0.00 49 1018.2
20260506213132 70 48 0.9 10.4 0.00 0.00 0.00 51 1018.2
20260506212632 70 260 7.8 10.4 0.00 0.00 0.00 50 1018.2
20260506212133 69 328 0.9 7.8 0.00 0.00 0.00 53 1018.3
20260506211633 70 205 3.5 7.8 0.00 0.00 0.00 50 1018.2
20260506211132 70 209 3.5 7.0 0.00 0.00 0.00 51 1018.5
20260506210632 70 313 1.7 7.0 0.00 0.00 0.00 49 1018.4
20260506210132 70 240 2.6 10.4 0.00 0.00 0.00 50 1018.5
20260506205632 70 240 4.3 10.4 0.00 0.00 0.00 50 1018.8
20260506205132 69 229 0.9 8.7 0.00 0.00 0.00 52 1018.6
20260506204132 69 225 4.3 10.4 0.00 0.00 0.00 52 1018.6
20260506203632 68 271 6.1 7.8 0.00 0.00 0.00 53 1018.6